www.pogodaiklimat.ru

Погода и климат >> Архив погоды >> Россия >> Якутия >> Джарджан


ПОГОДА в Джарджане

  • Прогноз погоды в Джарджане
  • Монитор погоды в Джарджане
  • Климат города

АРХИВ ПОГОДЫ в Джарджане

Время (UTC), дата Ветер
(напр.,м/с)
 
Видим.   Явления Облачность Т
(С)
Тd
(С)
f
(%)
Тe
(С)
Тes
(С)
Комфортность P
(гПа)
Po
(гПа)
Тmin
(С)
Tmax
(С)
R
(мм)
R24
(мм)
S
(см)
18 19.06 С 1 50 км 10/8 1000 м
[Sc Ac As]
+10.7 +5.2 69 +11 +11 1007.7 1003.0
21 19.06 штиль 0 50 км 8/8 1000 м
[Sc]
+11.2 +7.7 79 +11 +11 1006.3 1001.6
00 20.06 штиль 0 50 км 10/8 600 м
[Sc Ci fib]
+15.1 +8.6 65 +15 +16 1005.8 1001.2 +8.9
03 20.06 штиль 0 50 км 10/10 600 м
[Sc]
+18.4 +9.7 57 +19 +19 1004.9 1000.4
06 20.06 штиль 0 50 км 10/10 600 м
[Sc]
+17.2 +6.5 49 +17 +17 1003.9 999.4
09 20.06 штиль 0 50 км 10/10 600 м
[Sc As op]
+16.7 +5.3 47 +17 +17 1004.8 1000.3
12 20.06 СВ 3 50 км 3/3 1000 м
[Sc]
+15.5 +4.1 47 +15 +15 1006.3 1001.7 +18.9
15 20.06 СВ 1 50 км ясно +11.0 +3.5 60 +11 +11 1007.9 1003.2
18 20.06 штиль 0 50 км ясно +9.9 +3.8 66 +9 +10 1009.5 1004.8
21 20.06 штиль 0 50 км 3/0
[Ci fib]
+12.1 +5.9 66 +12 +14 1008.3 1003.7
00 21.06 З 1 50 км 10/8 1000 м
[Sc Ci fib]
+14.9 +7.0 59 +16 +17 1007.6 1003.0 +9.5
03 21.06 ЮЗ 3 50 км 10/10 1000 м
[Sc]
+16.0 +3.4 43 +16 +16 1005.8 1001.2
06 21.06 ЮЗ 5 50 км 8/8 600 м
[Sc]
+18.4 +3.5 37 +18 +19 1003.4 998.9
09 21.06 ЮЗ 5 50 км 10/8 600 м
[Sc Ci fib]
+18.3 +9.2 55 +18 +19 1000.9 996.4
12 21.06 Ю 3 50 км 10/3 1000 м
[Sc Ac As]
+16.7 +11.6 72 +16 +17 1000.6 996.1 +18.7
15 21.06 ЮЗ 12-12
{12}
50 км {дождь} 10/8 600 м
[Sc As op Ci fib]
+15.5 +13.2 86 +13 +13 998.6 994.1
18 21.06 Ю 1 50 км 10/4 1000 м
[Sc Ac As Ci fib]
+13.3 +11.4 88 +13 +14 999.5 995.0
21 21.06 Ю 1 50 км 9/3 1000 м
[Sc Ci fib]
+14.9 +5.7 54 +16 +17 1000.1 995.6
00 22.06 З 1 50 км 3/0
[Ci fib]
+16.3 +12.7 79 +17 +25 1001.5 997.0 +12.7 0.9
03 22.06 ЮЗ 1 50 км 10/0
[Ci fib]
+18.8 +13.2 70 +21 +31 комфорт 1001.0 996.5
06 22.06 ЮЗ 3 50 км 9/0
[Ci fib]
+21.7 +11.7 53 +24 +30 комфорт 997.8 995.0
09 22.06 ЮЗ 3 50 км 10/0
[Ci fib]
+22.3 +10.3 47 +24 +27 комфорт 997.8 993.4
12 22.06 СВ 3 4000 м ливневой дождь, в посл. час гроза 10/10 600 м
[Cb cap]
+17.9 +17.6 98 +18 +18 995.7 991.2 +13.6 20
15 22.06 Ю 1 20 км слабый дождь {гроза} 10/10 600 м
[Sc As op]
+17.6 +17.3 98 +19 +19 994.2 989.7
18 22.06 Ю 1 50 км 10/10 600 м
[Sc As op]
+17.1 +16.3 95 +18 +18 992.8 980.3
21 22.06 штиль 0 20 км слабый дождь 10/0 600 м
[As op]
+16.9 +16.6 98 +17 +17 993.0 988.5
00 23.06 штиль 0 20 км слабый дождь 10/10 600 м
[Sc As op]
+17.4 +17.1 98 +17 +17 993.0 988.5 +16.7 8
03 23.06 штиль 0 20 км слабый дождь 10/0
[As op]
+16.8 +16.5 98 +17 +20 993.7 989.2
06 23.06 С 1 50 км {дождь} 10/10 600 м
[Sc As op]
+17.5 +16.7 95 +19 +19 994.1 989.6
09 23.06 С 3 4000 м ливневой дождь, в посл. час гроза 10/10 600 м
[Cb cap As op]
+9.4 +9.0 97 +7 +7 998.0 993.4
12 23.06 С 5 50 км {дождь} 10/10 600 м
[Sc As op]
+7.2 +6.3 94 +3 +3 1001.2 996.5 +17.8 10
15 23.06 С 7 50 км 10/10 600 м
[Sc As op]
+5.1 +3.9 92 -1 -1 1006.0 1001.3
18 23.06 С 7 50 км 10/10 600 м
[Sc]
+4.0 +1.4 83 -2 -2 1008.8 1004.1
21 23.06 С 5 50 км 10/10 600 м
[Sc]
+3.3 -0.8 74 -2 -2 1011.7 1006.9
00 24.06 С 5 50 км 4/4 600 м
[Sc]
+7.2 -0.6 58 +4 +6 1013.7 1009.0 +3.0
03 24.06 С 3 50 км ясно +10.7 -0.8 45 +9 +18 1014.3 1009.6
06 24.06 С 5 50 км ясно +18.5 +3.4 37 +18 +23 1013.7 1009.1
09 24.06 С 3 50 км ясно +15.2 -2.4 30 +15 +18 1013.8 1009.2
12 24.06 С 1 50 км ясно +14.9 -3.0 29 +16 +17 1013.9 1009.3 +18.9
15 24.06 штиль 0 50 км ясно +8.6 -0.9 51 +8 +8 1014.1 1009.4
18 24.06 штиль 0 50 км ясно +7.8 -0.3 57 +7 +8 1014.3 1009.6
21 24.06 штиль 0 50 км 8/0
[Ci fib]
+11.4 +7.7 78 +11 +13 1014.7 1010.1
00 25.06 штиль 0 50 км 8/0
[Ci fib]
+14.9 +3.8 47 +15 +23 1015.2 1010.6 +2.9
03 25.06 ЮЗ 1 50 км 10/0
[Ci fib]
+18.2 +3.2 37 +19 +30 1014.1 1009.5
06 25.06 штиль 0 50 км 4/0
[Ci fib]
+21.7 +1.4 26 +21 +33 комфорт 1012.1 1007.5
09 25.06 штиль 0 50 км ясно +23.1 +1.2 24 +22 +28 комфорт 1009.9 1005.4
12 25.06 Ю 1 50 км 3/0
[Ci fib]
+20.2 +2.7 31 +22 +22 комфорт 1009.3 1004.8 +23.3
15 25.06 штиль 0 50 км 8/0
[Ci fib]
+13.6 +2.8 48 +13 +13 1009.0 1004.4
18 25.06 штиль 0 50 км 3/0
[Ci fib]
+12.1 +3.6 56 +12 +12 1008.7 1004.1
21 25.06 штиль 0 50 км ясно +17.7 +3.0 37 +18 +21 1008.3 1003.8
00 26.06 штиль 0 50 км ясно +19.7 +5.2 39 +20 +29 1007.8 1003.3 +11.3
03 26.06 З 1 50 км 3/0
[Ci fib]
+23.3 +4.9 30 +23 +35 комфорт 1006.3 1001.9
06 26.06 ЮЗ 3 50 км 5/0
[Ci fib]
+25.7 +3.8 24 +25 +32 комфорт 1004.9 1000.5
09 26.06 ЮЗ 1 50 км 10/0
[Ci fib]
+25.1 +3.7 25 +24 +28 комфорт 1003.8 999.4
12 26.06 штиль 0 50 км 10/0
[Ci fib]
+22.2 +4.0 30 +22 +23 комфорт 1002.7 998.3 +26.1
15 26.06 штиль 0 50 км 10/0
[As op Ci fib]
+14.8 +4.5 50 +15 +15 1002.7 998.1

 

Местоположение метеостанции Джарджан (Якутия, Россия): широта 68.73 долгота 124.00 высота над уровнем моря 39 м.

В архиве по умолчанию представлена погода в Джарджане за последнюю неделю. Архивные данные за месяц целиком и за предыдущие месяцы, начиная с января 2011 года, Вы можете получить, выбрав интересующий диапазон дат из раскрывающегося списка и нажав кнопку "Ввод!".

Внимание! Время в таблицах - всемирное. Для получения местного времени необходимо прибавить поправку, которая в Джарджане равна 9 ч.

Смотрите также архив погоды в соседних городах и на ближайших метеорологических станциях:

Погода в Жиганске (Якутия, Россия) (219 км)
Погода в Сухане (Якутия, Россия) (231 км)
Погода в Кюсюре (Якутия, Россия) (253 км)
Погода в Батагай-Алыте (Якутия, Россия) (284 км)
Погода в Тюмяти (Якутия, Россия) (355 км)
Погода в Тикси (Якутия, Россия) (367 км)
Погода в Бестяхской Звероферме (Якутия, Россия) (382 км)
Погода в Екюччю (Якутия, Россия) (387 км)
Погода в Верхоянске (Якутия, Россия) (409 км)
Погода на Мысе Быков (Якутия, Россия) (410 км)

Пояснения к столбцам:

Ветер - указаны скорость ветра в м/с - средняя за 10 мин, порывы в срок и между сроками (в фигурных скобках) и направление, откуда дует ветер: С - северный, СВ - северо-восточный, В - восточный, ЮВ - юго-восточный, Ю - южный, ЮЗ - юго-западный, З - западный, СЗ - северо-западный.
Видимость - горизонтальная дальность видимости в метрах или километрах. При видимости от 1 до 10 км при отсутствии осадков обычно наблюдается дымка, при ухудшении видимости до 1 км и менее - туман. В сухую погоду видимость может ухудшаться дымом, пылью или мглою.
Явления - указаны атмосферные явления, наблюдавшиеся в срок или в последний час перед сроком; фигурными скобками обозначены явления, наблюдавшиеся между сроками (за 1-3 часа до срока); квадратными скобками обозначены град или гололедные отложения с указанием их диаметра в мм.
Облачность - указаны через наклонную черту общая и нижняя облачность в баллах и высота нижней границы облаков в метрах; квадратными скобками обозначены формы облаков: Ci - перистые, Cs - перисто-слоистые, Cc - перисто-кучевые, Ac - высококучевые, As - высокослоистые, Sc - слоисто-кучевые, Ns - слоисто-дождевые, Cu - кучевые, Cb - кучево-дождевые. Подробнее классификацию облаков см. в Атласе облаков (PDF).
T - Температура воздуха - температура, измеренная на высоте 2 м над землей.
Td - Температура точки росы - температура, при понижении до которой содержащийся в воздухе водяной пар достигнет насыщения.
f - Относительная влажность воздуха - влажноcть воздуха, измеренная на высоте 2 м над землей.
Te - Эффективная температура - температура, которую ощущает одетый по сезону человек в тени. Характеристика душности погоды. При расчете учитывается влияние влажности воздуха и скорости ветра на теплоощущения человека.
Tes - Эффективная температура на солнце - температура, которую ощущает человек, с поправкой на солнечный нагрев. Характеристика знойности погоды. Зависит от высоты солнца над горизонтом, облачности и скорости ветра. Ночью, в пасмурную погоду, а также при ветре 12 м/с и более поправка равна нулю.
P - Атмосферное давление - приведенное к уровню моря атмосферное давление.
Po - Атмосферное давление - измеренное на уровне метеостанции атмосферное давление.
Tmin - Минимальная температура - минимум температуры воздуха на высоте 2 м над землей.
Tmax - Максимальная температура - максимум температуры воздуха на высоте 2 м над землей.
R - Количество осадков - Количество выпавших осадков за период времени, мм. При наведении курсора мыши на число - период времени, за который выпало указанное количество осадков.
R24 - Количество осадков - Количество выпавших осадков за 24 часа, мм.
S - Снежный покров - Высота снежного покрова, см. При наведении курсора мыши на число - состояние снежного покрова и степень покрытия местности в баллах.